Location: Kitt Peak
(31.9639°N, 111.5992°W)
Time: 00:41:51
(UTC-07:00)

ISS - Visible Passes

Search period start: 25 November 2017 00:00
Search period end: 05 December 2017 00:00
Orbit: 401 x 407 km, 51.6° (Epoch: 25 November)

Date Brightness Start Highest point End Pass type
(mag) Time Alt. Az. Time Alt. Az. Time Alt. Az.
25 Nov -3.7 18:54:52 10° SW 18:58:07 68° NW 18:58:17 66° NNW visible
26 Nov -3.5 18:02:38 10° SSW 18:05:48 49° SE 18:08:24 14° ENE visible
26 Nov -0.6 19:40:37 10° WNW 19:41:05 12° WNW 19:41:05 12° WNW visible
27 Nov -2.0 18:47:08 10° W 18:49:54 25° NW 18:51:06 20° N visible
28 Nov -3.1 17:54:14 10° WSW 17:57:25 50° NW 18:00:37 10° NE visible
29 Nov -1.1 18:40:30 10° NW 18:41:48 12° NNW 18:43:07 10° N visible
30 Nov -1.7 17:46:39 10° W 17:49:10 20° NW 17:51:42 10° NNE visible
